iso_date,epoch_date,Year,Hour,Min,DOY,POS_DOY,Lat,Lon,BP,Ts,Ta,has_bp,has_ts,has_ta,BuoyID,Buoy_Type,Buoy_Owner,Logistics,Hemisphere
2020-09-07T22:00:02Z,1599516003,2020,22,0,251.9167,251.9167,58.403,-176.615,1013.7,10.31,-999.0,yes,yes,no,300534060714650,BD2GI,AOML,ARAON,North
2020-09-07T22:59:57Z,1599519597,2020,23,0,251.9583,251.9583,58.406,-176.614,1014.2,10.32,-999.0,yes,yes,no,300534060714650,BD2GI,AOML,ARAON,North
2020-09-08T00:00:00Z,1599523200,2020,0,0,252.0,252.0,58.408,-176.614,1014.8,10.34,-999.0,yes,yes,no,300534060714650,BD2GI,AOML,ARAON,North
2020-09-08T01:00:02Z,1599526803,2020,1,0,252.0417,252.0417,58.408,-176.615,1015.4,10.35,-999.0,yes,yes,no,300534060714650,BD2GI,AOML,ARAON,North
2020-09-08T01:59:57Z,1599530397,2020,2,0,252.0833,252.0833,58.407,-176.617,1015.8,10.36,-999.0,yes,yes,no,300534060714650,BD2GI,AOML,ARAON,North
2020-09-08T03:00:00Z,1599534000,2020,3,0,252.125,252.125,58.406,-176.622,1016.1,10.36,-999.0,yes,yes,no,300534060714650,BD2GI,AOML,ARAON,North
2020-09-08T04:00:02Z,1599537603,2020,4,0,252.1667,252.1667,58.406,-176.626,1016.7,10.37,-999.0,yes,yes,no,300534060714650,BD2GI,AOML,ARAON,North
2020-09-08T04:59:57Z,1599541197,2020,5,0,252.2083,252.2083,58.407,-176.635,1017.2,10.37,-999.0,yes,yes,no,300534060714650,BD2GI,AOML,ARAON,North
2020-09-08T06:00:00Z,1599544800,2020,6,0,252.25,252.25,58.409,-176.645,1017.7,10.35,-999.0,yes,yes,no,300534060714650,BD2GI,AOML,ARAON,North
2020-09-08T07:00:02Z,1599548403,2020,7,0,252.2917,252.2917,58.413,-176.653,1018.6,10.35,-999.0,yes,yes,no,300534060714650,BD2GI,AOML,ARAON,North
2020-09-08T07:59:57Z,1599551997,2020,8,0,252.3333,252.3333,58.418,-176.658,1019.5,10.35,-999.0,yes,yes,no,300534060714650,BD2GI,AOML,ARAON,North
2020-09-08T09:00:00Z,1599555600,2020,9,0,252.375,252.375,58.422,-176.661,1019.9,10.35,-999.0,yes,yes,no,300534060714650,BD2GI,AOML,ARAON,North
2020-09-08T10:00:02Z,1599559203,2020,10,0,252.4167,252.4167,58.427,-176.663,1020.4,10.34,-999.0,yes,yes,no,300534060714650,BD2GI,AOML,ARAON,North
2020-09-08T10:59:57Z,1599562797,2020,11,0,252.4583,252.4583,58.43,-176.665,1020.9,10.33,-999.0,yes,yes,no,300534060714650,BD2GI,AOML,ARAON,North
2020-09-08T12:00:00Z,1599566400,2020,12,0,252.5,252.5,58.433,-176.666,1021.3,10.32,-999.0,yes,yes,no,300534060714650,BD2GI,AOML,ARAON,North
2020-09-08T13:00:02Z,1599570003,2020,13,0,252.5417,252.5417,58.433,-176.666,1021.7,10.34,-999.0,yes,yes,no,300534060714650,BD2GI,AOML,ARAON,North
2020-09-08T13:59:57Z,1599573597,2020,14,0,252.5833,252.5833,58.433,-176.669,1022.1,10.33,-999.0,yes,yes,no,300534060714650,BD2GI,AOML,ARAON,North
2020-09-08T15:00:00Z,1599577200,2020,15,0,252.625,252.625,58.433,-176.673,1022.3,10.32,-999.0,yes,yes,no,300534060714650,BD2GI,AOML,ARAON,North
2020-09-08T16:00:02Z,1599580803,2020,16,0,252.6667,252.6667,58.436,-176.679,1022.6,10.33,-999.0,yes,yes,no,300534060714650,BD2GI,AOML,ARAON,North
2020-09-08T16:59:57Z,1599584397,2020,17,0,252.7083,252.7083,58.439,-176.684,1023.1,10.32,-999.0,yes,yes,no,300534060714650,BD2GI,AOML,ARAON,North
2020-09-08T18:00:00Z,1599588000,2020,18,0,252.75,252.75,58.441,-176.688,1023.7,10.32,-999.0,yes,yes,no,300534060714650,BD2GI,AOML,ARAON,North
2020-09-08T19:00:02Z,1599591603,2020,19,0,252.7917,252.7917,58.442,-176.695,1023.9,10.34,-999.0,yes,yes,no,300534060714650,BD2GI,AOML,ARAON,North
2020-09-08T19:59:57Z,1599595197,2020,20,0,252.8333,252.8333,58.443,-176.703,1024.4,10.37,-999.0,yes,yes,no,300534060714650,BD2GI,AOML,ARAON,North
2020-09-08T21:00:00Z,1599598800,2020,21,0,252.875,252.875,58.446,-176.711,1024.8,10.49,-999.0,yes,yes,no,300534060714650,BD2GI,AOML,ARAON,North
2020-09-08T22:00:02Z,1599602403,2020,22,0,252.9167,252.9167,58.45,-176.72,1025.0,10.65,-999.0,yes,yes,no,300534060714650,BD2GI,AOML,ARAON,North
2020-09-08T22:59:57Z,1599605997,2020,23,0,252.9583,252.9583,58.455,-176.727,1025.1,10.69,-999.0,yes,yes,no,300534060714650,BD2GI,AOML,ARAON,North
2020-09-09T00:00:00Z,1599609600,2020,0,0,253.0,253.0,58.46,-176.732,1025.4,10.67,-999.0,yes,yes,no,300534060714650,BD2GI,AOML,ARAON,North
2020-09-09T01:00:02Z,1599613203,2020,1,0,253.0417,253.0417,58.465,-176.732,1025.6,10.67,-999.0,yes,yes,no,300534060714650,BD2GI,AOML,ARAON,North
2020-09-09T01:59:57Z,1599616797,2020,2,0,253.0833,253.0833,58.468,-176.731,1025.5,10.63,-999.0,yes,yes,no,300534060714650,BD2GI,AOML,ARAON,North
2020-09-09T03:00:00Z,1599620400,2020,3,0,253.125,253.125,58.468,-176.731,1025.5,10.62,-999.0,yes,yes,no,300534060714650,BD2GI,AOML,ARAON,North
2020-09-09T04:00:02Z,1599624003,2020,4,0,253.1667,253.1667,58.467,-176.735,1025.6,10.63,-999.0,yes,yes,no,300534060714650,BD2GI,AOML,ARAON,North
2020-09-09T04:59:57Z,1599627597,2020,5,0,253.2083,253.2083,58.467,-176.741,1025.6,10.61,-999.0,yes,yes,no,300534060714650,BD2GI,AOML,ARAON,North
2020-09-09T06:00:00Z,1599631200,2020,6,0,253.25,253.25,58.468,-176.75,1025.5,10.56,-999.0,yes,yes,no,300534060714650,BD2GI,AOML,ARAON,North
2020-09-09T07:00:02Z,1599634803,2020,7,0,253.2917,253.2917,58.47,-176.758,1025.8,10.51,-999.0,yes,yes,no,300534060714650,BD2GI,AOML,ARAON,North
2020-09-09T07:59:57Z,1599638397,2020,8,0,253.3333,253.3333,58.474,-176.77,1026.1,10.49,-999.0,yes,yes,no,300534060714650,BD2GI,AOML,ARAON,North
2020-09-09T09:00:00Z,1599642000,2020,9,0,253.375,253.375,58.478,-176.779,1026.1,10.46,-999.0,yes,yes,no,300534060714650,BD2GI,AOML,ARAON,North
2020-09-09T10:00:02Z,1599645603,2020,10,0,253.4167,253.4167,58.483,-176.786,1026.1,10.42,-999.0,yes,yes,no,300534060714650,BD2GI,AOML,ARAON,North
2020-09-09T10:59:57Z,1599649197,2020,11,0,253.4583,253.4583,58.488,-176.792,1026.0,10.4,-999.0,yes,yes,no,300534060714650,BD2GI,AOML,ARAON,North
2020-09-09T12:00:00Z,1599652800,2020,12,0,253.5,253.5,58.492,-176.797,1026.2,10.38,-999.0,yes,yes,no,300534060714650,BD2GI,AOML,ARAON,North
2020-09-09T13:00:02Z,1599656403,2020,13,0,253.5417,253.5417,58.497,-176.8,1025.9,10.35,-999.0,yes,yes,no,300534060714650,BD2GI,AOML,ARAON,North
2020-09-09T13:59:57Z,1599659997,2020,14,0,253.5833,253.5833,58.501,-176.804,1025.7,10.35,-999.0,yes,yes,no,300534060714650,BD2GI,AOML,ARAON,North
2020-09-09T15:00:00Z,1599663600,2020,15,0,253.625,253.625,58.503,-176.807,1025.7,10.32,-999.0,yes,yes,no,300534060714650,BD2GI,AOML,ARAON,North
2020-09-09T16:00:02Z,1599667203,2020,16,0,253.6667,253.6667,58.505,-176.811,1025.5,10.31,-999.0,yes,yes,no,300534060714650,BD2GI,AOML,ARAON,North
2020-09-09T16:59:57Z,1599670797,2020,17,0,253.7083,253.7083,58.508,-176.818,1025.4,10.3,-999.0,yes,yes,no,300534060714650,BD2GI,AOML,ARAON,North
2020-09-09T18:00:00Z,1599674400,2020,18,0,253.75,253.75,58.51,-176.826,1025.4,10.31,-999.0,yes,yes,no,300534060714650,BD2GI,AOML,ARAON,North
2020-09-09T19:00:02Z,1599678003,2020,19,0,253.7917,253.7917,58.513,-176.833,1025.6,10.32,-999.0,yes,yes,no,300534060714650,BD2GI,AOML,ARAON,North
2020-09-09T19:59:57Z,1599681597,2020,20,0,253.8333,253.8333,58.516,-176.844,1025.7,10.32,-999.0,yes,yes,no,300534060714650,BD2GI,AOML,ARAON,North
2020-09-09T21:00:00Z,1599685200,2020,21,0,253.875,253.875,58.52,-176.853,1026.0,10.33,-999.0,yes,yes,no,300534060714650,BD2GI,AOML,ARAON,North
2020-09-09T22:00:02Z,1599688803,2020,22,0,253.9167,253.9167,58.524,-176.861,1026.0,10.33,-999.0,yes,yes,no,300534060714650,BD2GI,AOML,ARAON,North
2020-09-09T22:59:57Z,1599692397,2020,23,0,253.9583,253.9583,58.529,-176.867,1025.9,10.35,-999.0,yes,yes,no,300534060714650,BD2GI,AOML,ARAON,North
2020-09-10T00:00:00Z,1599696000,2020,0,0,254.0,254.0,58.534,-176.873,1025.8,10.35,-999.0,yes,yes,no,300534060714650,BD2GI,AOML,ARAON,North
2020-09-10T01:00:02Z,1599699603,2020,1,0,254.0417,254.0417,58.539,-176.876,1025.6,10.35,-999.0,yes,yes,no,300534060714650,BD2GI,AOML,ARAON,North
2020-09-10T01:59:57Z,1599703197,2020,2,0,254.0833,254.0833,58.543,-176.878,1025.5,10.36,-999.0,yes,yes,no,300534060714650,BD2GI,AOML,ARAON,North
2020-09-10T03:00:00Z,1599706800,2020,3,0,254.125,254.125,58.546,-176.879,1025.4,10.36,-999.0,yes,yes,no,300534060714650,BD2GI,AOML,ARAON,North
2020-09-10T04:00:02Z,1599710403,2020,4,0,254.1667,254.1667,58.547,-176.881,1025.3,10.36,-999.0,yes,yes,no,300534060714650,BD2GI,AOML,ARAON,North
2020-09-10T04:59:57Z,1599713997,2020,5,0,254.2083,254.2083,58.548,-176.885,1024.9,10.36,-999.0,yes,yes,no,300534060714650,BD2GI,AOML,ARAON,North
2020-09-10T06:00:00Z,1599717600,2020,6,0,254.25,254.25,58.547,-176.891,1024.8,10.36,-999.0,yes,yes,no,300534060714650,BD2GI,AOML,ARAON,North
2020-09-10T07:00:02Z,1599721203,2020,7,0,254.2917,254.2917,58.548,-176.899,1024.9,10.36,-999.0,yes,yes,no,300534060714650,BD2GI,AOML,ARAON,North
2020-09-10T07:59:57Z,1599724797,2020,8,0,254.3333,254.3333,58.55,-176.909,1025.0,10.36,-999.0,yes,yes,no,300534060714650,BD2GI,AOML,ARAON,North
2020-09-10T09:00:00Z,1599728400,2020,9,0,254.375,254.375,58.553,-176.918,1025.0,10.35,-999.0,yes,yes,no,300534060714650,BD2GI,AOML,ARAON,North
2020-09-10T10:00:02Z,1599732003,2020,10,0,254.4167,254.4167,58.558,-176.928,1024.9,10.35,-999.0,yes,yes,no,300534060714650,BD2GI,AOML,ARAON,North
2020-09-10T10:59:57Z,1599735597,2020,11,0,254.4583,254.4583,58.564,-176.935,1024.8,10.35,-999.0,yes,yes,no,300534060714650,BD2GI,AOML,ARAON,North
2020-09-10T12:00:00Z,1599739200,2020,12,0,254.5,254.5,58.569,-176.942,1024.7,10.35,-999.0,yes,yes,no,300534060714650,BD2GI,AOML,ARAON,North
2020-09-10T13:00:02Z,1599742803,2020,13,0,254.5417,254.5417,58.573,-176.946,1024.7,10.35,-999.0,yes,yes,no,300534060714650,BD2GI,AOML,ARAON,North
2020-09-10T13:59:57Z,1599746397,2020,14,0,254.5833,254.5833,58.577,-176.949,1024.5,10.34,-999.0,yes,yes,no,300534060714650,BD2GI,AOML,ARAON,North
2020-09-10T15:00:00Z,1599750000,2020,15,0,254.625,254.625,58.579,-176.952,1024.2,10.34,-999.0,yes,yes,no,300534060714650,BD2GI,AOML,ARAON,North
2020-09-10T16:00:02Z,1599753603,2020,16,0,254.6667,254.6667,58.58,-176.956,1024.1,10.33,-999.0,yes,yes,no,300534060714650,BD2GI,AOML,ARAON,North
2020-09-10T16:59:57Z,1599757197,2020,17,0,254.7083,254.7083,58.581,-176.964,1024.1,10.33,-999.0,yes,yes,no,300534060714650,BD2GI,AOML,ARAON,North
2020-09-10T18:00:00Z,1599760800,2020,18,0,254.75,254.75,58.583,-176.973,1024.1,10.33,-999.0,yes,yes,no,300534060714650,BD2GI,AOML,ARAON,North
2020-09-10T19:00:02Z,1599764403,2020,19,0,254.7917,254.7917,58.586,-176.985,1024.2,10.31,-999.0,yes,yes,no,300534060714650,BD2GI,AOML,ARAON,North
2020-09-10T19:59:57Z,1599767997,2020,20,0,254.8333,254.8333,58.59,-176.993,1024.4,10.31,-999.0,yes,yes,no,300534060714650,BD2GI,AOML,ARAON,North
2020-09-10T21:00:00Z,1599771600,2020,21,0,254.875,254.875,58.596,-177.0,1024.4,10.31,-999.0,yes,yes,no,300534060714650,BD2GI,AOML,ARAON,North
2020-09-10T22:00:02Z,1599775203,2020,22,0,254.9167,254.9167,58.602,-177.004,1024.2,10.3,-999.0,yes,yes,no,300534060714650,BD2GI,AOML,ARAON,North
2020-09-10T22:59:57Z,1599778797,2020,23,0,254.9583,254.9583,58.607,-177.006,1024.0,10.3,-999.0,yes,yes,no,300534060714650,BD2GI,AOML,ARAON,North
2020-09-11T00:00:00Z,1599782400,2020,0,0,255.0,255.0,58.611,-177.007,1023.9,10.29,-999.0,yes,yes,no,300534060714650,BD2GI,AOML,ARAON,North
2020-09-11T01:00:02Z,1599786003,2020,1,0,255.0417,255.0417,58.614,-177.004,1023.6,10.28,-999.0,yes,yes,no,300534060714650,BD2GI,AOML,ARAON,North
2020-09-11T01:59:57Z,1599789597,2020,2,0,255.0833,255.0833,58.615,-177.001,1023.2,10.28,-999.0,yes,yes,no,300534060714650,BD2GI,AOML,ARAON,North
2020-09-11T03:00:00Z,1599793200,2020,3,0,255.125,255.125,58.615,-177.001,1023.0,10.28,-999.0,yes,yes,no,300534060714650,BD2GI,AOML,ARAON,North
2020-09-11T04:00:02Z,1599796803,2020,4,0,255.1667,255.1667,58.614,-177.002,1022.7,10.27,-999.0,yes,yes,no,300534060714650,BD2GI,AOML,ARAON,North
2020-09-11T04:59:57Z,1599800397,2020,5,0,255.2083,255.2083,58.614,-177.007,1022.4,10.26,-999.0,yes,yes,no,300534060714650,BD2GI,AOML,ARAON,North
2020-09-11T06:00:00Z,1599804000,2020,6,0,255.25,255.25,58.613,-177.016,1022.2,10.25,-999.0,yes,yes,no,300534060714650,BD2GI,AOML,ARAON,North
2020-09-11T07:00:02Z,1599807603,2020,7,0,255.2917,255.2917,58.615,-177.026,1022.2,10.24,-999.0,yes,yes,no,300534060714650,BD2GI,AOML,ARAON,North
2020-09-11T07:59:57Z,1599811197,2020,8,0,255.3333,255.3333,58.619,-177.036,1022.2,10.23,-999.0,yes,yes,no,300534060714650,BD2GI,AOML,ARAON,North
2020-09-11T09:00:00Z,1599814800,2020,9,0,255.375,255.375,58.621,-177.045,1022.0,10.22,-999.0,yes,yes,no,300534060714650,BD2GI,AOML,ARAON,North
2020-09-11T10:00:02Z,1599818403,2020,10,0,255.4167,255.4167,58.625,-177.052,1021.7,10.21,-999.0,yes,yes,no,300534060714650,BD2GI,AOML,ARAON,North
2020-09-11T10:59:57Z,1599821997,2020,11,0,255.4583,255.4583,58.628,-177.059,1021.3,10.21,-999.0,yes,yes,no,300534060714650,BD2GI,AOML,ARAON,North
2020-09-11T12:00:00Z,1599825600,2020,12,0,255.5,255.5,58.631,-177.064,1021.0,10.2,-999.0,yes,yes,no,300534060714650,BD2GI,AOML,ARAON,North
2020-09-11T13:00:02Z,1599829203,2020,13,0,255.5417,255.5417,58.633,-177.071,1021.0,10.19,-999.0,yes,yes,no,300534060714650,BD2GI,AOML,ARAON,North
2020-09-11T13:59:57Z,1599832797,2020,14,0,255.5833,255.5833,58.637,-177.077,1020.8,10.18,-999.0,yes,yes,no,300534060714650,BD2GI,AOML,ARAON,North
2020-09-11T15:00:00Z,1599836400,2020,15,0,255.625,255.625,58.64,-177.083,1020.4,10.17,-999.0,yes,yes,no,300534060714650,BD2GI,AOML,ARAON,North
2020-09-11T16:00:02Z,1599840003,2020,16,0,255.6667,255.6667,58.642,-177.089,1020.3,10.16,-999.0,yes,yes,no,300534060714650,BD2GI,AOML,ARAON,North
2020-09-11T16:59:57Z,1599843597,2020,17,0,255.7083,255.7083,58.644,-177.096,1020.1,10.16,-999.0,yes,yes,no,300534060714650,BD2GI,AOML,ARAON,North
2020-09-11T18:00:00Z,1599847200,2020,18,0,255.75,255.75,58.645,-177.104,1020.1,10.16,-999.0,yes,yes,no,300534060714650,BD2GI,AOML,ARAON,North
2020-09-11T19:00:02Z,1599850803,2020,19,0,255.7917,255.7917,58.647,-177.115,1020.2,10.15,-999.0,yes,yes,no,300534060714650,BD2GI,AOML,ARAON,North
2020-09-11T19:59:57Z,1599854397,2020,20,0,255.8333,255.8333,58.649,-177.125,1020.3,10.14,-999.0,yes,yes,no,300534060714650,BD2GI,AOML,ARAON,North
2020-09-11T21:00:00Z,1599858000,2020,21,0,255.875,255.875,58.653,-177.136,1020.4,10.14,-999.0,yes,yes,no,300534060714650,BD2GI,AOML,ARAON,North
2020-09-11T22:00:02Z,1599861603,2020,22,0,255.9167,255.9167,58.658,-177.146,1020.2,10.14,-999.0,yes,yes,no,300534060714650,BD2GI,AOML,ARAON,North
2020-09-11T22:59:57Z,1599865197,2020,23,0,255.9583,255.9583,58.663,-177.153,1019.7,10.15,-999.0,yes,yes,no,300534060714650,BD2GI,AOML,ARAON,North
2020-09-12T00:00:00Z,1599868800,2020,0,0,256.0,256.0,58.667,-177.157,1019.3,10.14,-999.0,yes,yes,no,300534060714650,BD2GI,AOML,ARAON,North
2020-09-12T01:00:02Z,1599872403,2020,1,0,256.0417,256.0417,58.672,-177.163,1018.7,10.14,-999.0,yes,yes,no,300534060714650,BD2GI,AOML,ARAON,North
2020-09-12T01:59:57Z,1599875997,2020,2,0,256.0833,256.0833,58.678,-177.167,1017.8,10.12,-999.0,yes,yes,no,300534060714650,BD2GI,AOML,ARAON,North
2020-09-12T03:00:00Z,1599879600,2020,3,0,256.125,256.125,58.682,-177.167,1017.1,10.12,-999.0,yes,yes,no,300534060714650,BD2GI,AOML,ARAON,North
2020-09-12T04:00:02Z,1599883203,2020,4,0,256.1667,256.1667,58.687,-177.169,1016.2,10.1,-999.0,yes,yes,no,300534060714650,BD2GI,AOML,ARAON,North
2020-09-12T04:59:57Z,1599886797,2020,5,0,256.2083,256.2083,58.69,-177.169,1015.0,10.09,-999.0,yes,yes,no,300534060714650,BD2GI,AOML,ARAON,North
2020-09-12T06:00:00Z,1599890400,2020,6,0,256.25,256.25,58.691,-177.174,1014.1,10.08,-999.0,yes,yes,no,300534060714650,BD2GI,AOML,ARAON,North
2020-09-12T07:00:02Z,1599894003,2020,7,0,256.2917,256.2917,58.693,-177.18,1013.1,10.07,-999.0,yes,yes,no,300534060714650,BD2GI,AOML,ARAON,North
2020-09-12T07:59:57Z,1599897597,2020,8,0,256.3333,256.3333,58.695,-177.189,1012.0,10.06,-999.0,yes,yes,no,300534060714650,BD2GI,AOML,ARAON,North
2020-09-12T09:00:00Z,1599901200,2020,9,0,256.375,256.375,58.698,-177.203,1011.0,10.04,-999.0,yes,yes,no,300534060714650,BD2GI,AOML,ARAON,North
2020-09-12T10:00:02Z,1599904803,2020,10,0,256.4167,256.4167,58.704,-177.218,1009.6,10.02,-999.0,yes,yes,no,300534060714650,BD2GI,AOML,ARAON,North
2020-09-12T10:59:57Z,1599908397,2020,11,0,256.4583,256.4583,58.712,-177.233,1008.4,9.99,-999.0,yes,yes,no,300534060714650,BD2GI,AOML,ARAON,North
2020-09-12T12:00:00Z,1599912000,2020,12,0,256.5,256.5,58.722,-177.242,1007.4,9.99,-999.0,yes,yes,no,300534060714650,BD2GI,AOML,ARAON,North
2020-09-12T13:00:02Z,1599915603,2020,13,0,256.5417,256.5417,58.733,-177.248,1006.7,9.98,-999.0,yes,yes,no,300534060714650,BD2GI,AOML,ARAON,North
2020-09-12T13:59:57Z,1599919197,2020,14,0,256.5833,256.5833,58.744,-177.248,1006.0,9.96,-999.0,yes,yes,no,300534060714650,BD2GI,AOML,ARAON,North
2020-09-12T15:00:00Z,1599922800,2020,15,0,256.625,256.625,58.752,-177.245,1005.6,9.95,-999.0,yes,yes,no,300534060714650,BD2GI,AOML,ARAON,North
2020-09-12T16:00:02Z,1599926403,2020,16,0,256.6667,256.6667,58.759,-177.239,1005.3,9.91,-999.0,yes,yes,no,300534060714650,BD2GI,AOML,ARAON,North
2020-09-12T16:59:57Z,1599929997,2020,17,0,256.7083,256.7083,58.763,-177.235,1005.2,9.91,-999.0,yes,yes,no,300534060714650,BD2GI,AOML,ARAON,North
2020-09-12T18:00:00Z,1599933600,2020,18,0,256.75,256.75,58.766,-177.232,1005.4,9.91,-999.0,yes,yes,no,300534060714650,BD2GI,AOML,ARAON,North
2020-09-12T19:00:02Z,1599937203,2020,19,0,256.7917,256.7917,58.768,-177.23,1005.8,9.89,-999.0,yes,yes,no,300534060714650,BD2GI,AOML,ARAON,North
2020-09-12T19:59:57Z,1599940797,2020,20,0,256.8333,256.8333,58.769,-177.23,1006.1,9.89,-999.0,yes,yes,no,300534060714650,BD2GI,AOML,ARAON,North
2020-09-12T21:00:00Z,1599944400,2020,21,0,256.875,256.875,58.771,-177.232,1006.7,9.88,-999.0,yes,yes,no,300534060714650,BD2GI,AOML,ARAON,North
2020-09-12T22:00:02Z,1599948003,2020,22,0,256.9167,256.9167,58.773,-177.234,1006.9,9.87,-999.0,yes,yes,no,300534060714650,BD2GI,AOML,ARAON,North
2020-09-12T22:59:57Z,1599951597,2020,23,0,256.9583,256.9583,58.776,-177.235,1007.1,9.87,-999.0,yes,yes,no,300534060714650,BD2GI,AOML,ARAON,North
2020-09-13T00:00:00Z,1599955200,2020,0,0,257.0,257.0,58.779,-177.236,1007.1,9.87,-999.0,yes,yes,no,300534060714650,BD2GI,AOML,ARAON,North
2020-09-13T01:00:02Z,1599958803,2020,1,0,257.0417,257.0417,58.782,-177.235,1007.1,9.87,-999.0,yes,yes,no,300534060714650,BD2GI,AOML,ARAON,North
2020-09-13T01:59:57Z,1599962397,2020,2,0,257.0833,257.0833,58.784,-177.235,1006.7,9.87,-999.0,yes,yes,no,300534060714650,BD2GI,AOML,ARAON,North
2020-09-13T03:00:00Z,1599966000,2020,3,0,257.125,257.125,58.787,-177.234,1006.6,9.87,-999.0,yes,yes,no,300534060714650,BD2GI,AOML,ARAON,North
2020-09-13T04:00:02Z,1599969603,2020,4,0,257.1667,257.1667,58.79,-177.231,1006.3,9.87,-999.0,yes,yes,no,300534060714650,BD2GI,AOML,ARAON,North
2020-09-13T04:59:57Z,1599973197,2020,5,0,257.2083,257.2083,58.792,-177.225,1006.2,9.87,-999.0,yes,yes,no,300534060714650,BD2GI,AOML,ARAON,North
2020-09-13T06:00:00Z,1599976800,2020,6,0,257.25,257.25,58.795,-177.22,1006.0,9.87,-999.0,yes,yes,no,300534060714650,BD2GI,AOML,ARAON,North
2020-09-13T07:00:02Z,1599980403,2020,7,0,257.2917,257.2917,58.795,-177.214,1006.2,9.87,-999.0,yes,yes,no,300534060714650,BD2GI,AOML,ARAON,North
2020-09-13T07:59:57Z,1599983997,2020,8,0,257.3333,257.3333,58.794,-177.21,1006.1,9.87,-999.0,yes,yes,no,300534060714650,BD2GI,AOML,ARAON,North
2020-09-13T09:00:00Z,1599987600,2020,9,0,257.375,257.375,58.792,-177.207,1005.9,9.87,-999.0,yes,yes,no,300534060714650,BD2GI,AOML,ARAON,North
2020-09-13T10:00:02Z,1599991203,2020,10,0,257.4167,257.4167,58.79,-177.207,1005.4,9.87,-999.0,yes,yes,no,300534060714650,BD2GI,AOML,ARAON,North
2020-09-13T10:59:57Z,1599994797,2020,11,0,257.4583,257.4583,58.788,-177.209,1005.0,9.86,-999.0,yes,yes,no,300534060714650,BD2GI,AOML,ARAON,North
2020-09-13T12:00:00Z,1599998400,2020,12,0,257.5,257.5,58.787,-177.214,1004.4,9.86,-999.0,yes,yes,no,300534060714650,BD2GI,AOML,ARAON,North
2020-09-13T13:00:02Z,1600002003,2020,13,0,257.5417,257.5417,58.787,-177.22,1004.3,9.86,-999.0,yes,yes,no,300534060714650,BD2GI,AOML,ARAON,North
2020-09-13T13:59:57Z,1600005597,2020,14,0,257.5833,257.5833,58.787,-177.227,1003.6,9.86,-999.0,yes,yes,no,300534060714650,BD2GI,AOML,ARAON,North
2020-09-13T15:00:00Z,1600009200,2020,15,0,257.625,257.625,58.787,-177.236,1003.3,9.86,-999.0,yes,yes,no,300534060714650,BD2GI,AOML,ARAON,North
2020-09-13T16:00:02Z,1600012803,2020,16,0,257.6667,257.6667,58.788,-177.246,1003.3,9.86,-999.0,yes,yes,no,300534060714650,BD2GI,AOML,ARAON,North
2020-09-13T16:59:57Z,1600016397,2020,17,0,257.7083,257.7083,58.79,-177.256,1003.2,9.85,-999.0,yes,yes,no,300534060714650,BD2GI,AOML,ARAON,North
2020-09-13T18:00:00Z,1600020000,2020,18,0,257.75,257.75,58.794,-177.266,1003.4,9.86,-999.0,yes,yes,no,300534060714650,BD2GI,AOML,ARAON,North
2020-09-13T19:00:02Z,1600023603,2020,19,0,257.7917,257.7917,58.8,-177.276,1003.5,9.87,-999.0,yes,yes,no,300534060714650,BD2GI,AOML,ARAON,North
2020-09-13T19:59:57Z,1600027197,2020,20,0,257.8333,257.8333,58.807,-177.281,1003.6,9.87,-999.0,yes,yes,no,300534060714650,BD2GI,AOML,ARAON,North
2020-09-13T21:00:00Z,1600030800,2020,21,0,257.875,257.875,58.814,-177.283,1003.8,9.87,-999.0,yes,yes,no,300534060714650,BD2GI,AOML,ARAON,North
2020-09-13T22:00:02Z,1600034403,2020,22,0,257.9167,257.9167,58.823,-177.281,1003.5,9.88,-999.0,yes,yes,no,300534060714650,BD2GI,AOML,ARAON,North
2020-09-13T22:59:57Z,1600037997,2020,23,0,257.9583,257.9583,58.83,-177.273,1003.4,9.88,-999.0,yes,yes,no,300534060714650,BD2GI,AOML,ARAON,North
2020-09-14T00:00:00Z,1600041600,2020,0,0,258.0,258.0,58.836,-177.261,1003.0,9.89,-999.0,yes,yes,no,300534060714650,BD2GI,AOML,ARAON,North
2020-09-14T01:00:02Z,1600045203,2020,1,0,258.0417,258.0417,58.841,-177.246,1002.9,9.89,-999.0,yes,yes,no,300534060714650,BD2GI,AOML,ARAON,North
2020-09-14T01:59:57Z,1600048797,2020,2,0,258.0833,258.0833,58.844,-177.228,1002.6,9.91,-999.0,yes,yes,no,300534060714650,BD2GI,AOML,ARAON,North
2020-09-14T03:00:00Z,1600052400,2020,3,0,258.125,258.125,58.842,-177.212,1002.2,9.9,-999.0,yes,yes,no,300534060714650,BD2GI,AOML,ARAON,North
2020-09-14T04:00:02Z,1600056003,2020,4,0,258.1667,258.1667,58.837,-177.201,1002.0,9.91,-999.0,yes,yes,no,300534060714650,BD2GI,AOML,ARAON,North
2020-09-14T04:59:57Z,1600059597,2020,5,0,258.2083,258.2083,58.831,-177.195,1001.8,9.89,-999.0,yes,yes,no,300534060714650,BD2GI,AOML,ARAON,North
2020-09-14T06:00:00Z,1600063200,2020,6,0,258.25,258.25,58.824,-177.195,1002.0,9.89,-999.0,yes,yes,no,300534060714650,BD2GI,AOML,ARAON,North
2020-09-14T07:00:02Z,1600066803,2020,7,0,258.2917,258.2917,58.819,-177.201,1002.1,9.89,-999.0,yes,yes,no,300534060714650,BD2GI,AOML,ARAON,North
2020-09-14T07:59:57Z,1600070397,2020,8,0,258.3333,258.3333,58.818,-177.209,1002.1,9.89,-999.0,yes,yes,no,300534060714650,BD2GI,AOML,ARAON,North
2020-09-14T09:00:00Z,1600074000,2020,9,0,258.375,258.375,58.82,-177.218,1002.1,9.89,-999.0,yes,yes,no,300534060714650,BD2GI,AOML,ARAON,North
2020-09-14T10:00:02Z,1600077603,2020,10,0,258.4167,258.4167,58.825,-177.223,1002.4,9.89,-999.0,yes,yes,no,300534060714650,BD2GI,AOML,ARAON,North
2020-09-14T10:59:57Z,1600081197,2020,11,0,258.4583,258.4583,58.832,-177.224,1002.4,9.9,-999.0,yes,yes,no,300534060714650,BD2GI,AOML,ARAON,North
2020-09-14T12:00:00Z,1600084800,2020,12,0,258.5,258.5,58.839,-177.22,1002.2,9.9,-999.0,yes,yes,no,300534060714650,BD2GI,AOML,ARAON,North
2020-09-14T13:00:02Z,1600088403,2020,13,0,258.5417,258.5417,58.844,-177.212,1002.2,9.9,-999.0,yes,yes,no,300534060714650,BD2GI,AOML,ARAON,North
2020-09-14T13:59:57Z,1600091997,2020,14,0,258.5833,258.5833,58.848,-177.201,1002.1,9.9,-999.0,yes,yes,no,300534060714650,BD2GI,AOML,ARAON,North
2020-09-14T15:00:00Z,1600095600,2020,15,0,258.625,258.625,58.849,-177.19,1002.3,9.9,-999.0,yes,yes,no,300534060714650,BD2GI,AOML,ARAON,North
2020-09-14T16:00:02Z,1600099203,2020,16,0,258.6667,258.6667,58.847,-177.181,1002.4,9.9,-999.0,yes,yes,no,300534060714650,BD2GI,AOML,ARAON,North
2020-09-14T16:59:57Z,1600102797,2020,17,0,258.7083,258.7083,58.843,-177.177,1002.6,9.91,-999.0,yes,yes,no,300534060714650,BD2GI,AOML,ARAON,North
2020-09-14T18:00:00Z,1600106400,2020,18,0,258.75,258.75,58.837,-177.177,1003.1,9.9,-999.0,yes,yes,no,300534060714650,BD2GI,AOML,ARAON,North